Theta_e
304 305 306 305 304 304 304 304 303 303 303 303 303 303 304 306 307 306 307 311 319 321 323 326 331 330 331 330 330 329 330 329 328 328 329 329 328 326 322 319 322 322 325 326
303 304 304 304 304 304 304 304 303 303 303 303 303 303 302 303 304 306 307 313 315 319 322 323 330 331 330 329 330 329 329 329 329 328 329 330 327 326 323 323 324 321 324 326
303 303 303 302 302 303 304 304 304 305 304 303 303 302 303 304 304 305 306 309 317 319 321 323 326 330 329 329 329 329 329 329 329 328 328 328 327 325 324 323 321 323 325 323
302 302 303 303 304 304 305 305 305 305 305 304 303 303 303 303 304 305 305 307 310 318 319 322 325 328 329 329 329 329 329 328 328 328 328 327 327 326 325 323 323 321 316 321
302 303 304 304 304 304 304 305 305 305 306 304 303 303 303 303 305 305 305 306 308 312 318 319 323 326 328 328 329 330 329 329 329 327 328 328 327 327 326 324 325 318 319 322
302 302 301 301 302 303 303 305 306 306 306 306 304 304 303 302 303 305 305 306 308 310 314 317 322 328 328 328 327 329 328 329 329 328 328 326 326 327 326 324 321 317 321 323
300 300 302 302 303 302 306 307 307 307 306 305 304 305 304 303 302 304 305 306 308 309 314 317 320 325 327 329 328 327 328 329 329 328 328 326 324 326 324 322 318 316 319 322
298 298 301 303 302 303 303 305 303 306 301 301 304 301 303 304 303 304 306 308 309 310 314 315 319 322 327 328 328 327 327 330 328 328 329 327 326 326 323 320 316 314 318 322
298 299 299 301 302 304 306 306 306 305 303 305 304 306 305 305 304 305 305 307 310 310 317 319 319 320 325 328 329 326 327 329 330 327 329 329 328 326 322 320 318 318 320 321
297 298 299 301 304 304 304 305 307 304 307 309 309 311 310 313 305 307 305 306 312 313 315 317 320 321 322 327 328 327 327 327 327 327 328 328 327 325 321 320 318 321 323 322
297 300 300 300 304 304 308 308 307 306 306 306 307 317 307 314 314 315 311 311 314 315 316 318 319 324 326 328 328 327 326 326 325 326 327 326 326 323 321 319 321 322 322 323
298 299 298 299 301 303 303 304 305 309 307 307 307 308 305 307 311 313 316 316 318 322 320 321 321 325 328 329 328 326 327 326 325 326 325 325 324 323 322 321 322 322 324 323
299 298 298 301 306 304 302 302 303 304 308 311 312 315 304 305 309 309 311 311 311 314 321 325 327 326 327 328 325 325 325 327 326 325 325 324 324 323 322 322 322 322 322 321
297 299 299 299 300 300 302 299 300 301 307 305 308 305 303 303 308 308 307 306 305 306 311 317 320 321 323 323 324 324 325 324 326 325 323 321 319 318 317 316 313 310 307 304
297 298 298 299 299 300 299 298 299 297 298 302 305 301 301 303 306 305 304 303 302 302 303 305 307 309 311 312 312 313 312 311 310 310 310 311 310 310 308 308 308 307 304 301
297 298 298 300 304 301 298 297 299 295 295 300 302 300 298 298 301 301 302 301 301 300 300 300 301 302 303 305 305 306 306 306 306 306 305 304 306 305 304 302 303 302 302 302
297 298 298 300 302 303 301 296 297 296 294 296 297 300 296 293 295 296 298 299 299 299 299 298 298 299 300 302 303 303 303 303 302 301 301 301 302 301 300 300 300 301 301 302
297 297 299 300 303 304 299 295 295 295 293 292 293 295 298 294 290 289 290 293 294 294 295 297 299 300 302 302 303 303 303 303 303 302 302 301 301 301 303 303 303 303 303 302
298 298 299 303 305 306 298 295 293 295 294 291 291 290 293 298 294 289 287 290 294 293 295 299 300 301 303 302 302 302 303 303 303 302 302 302 302 302 301 301 301 300 299 299
299 300 299 302 302 300 296 292 292 297 296 290 289 288 288 293 292 286 285 293 297 299 300 300 300 301 302 301 303 304 302 302 300 299 300 300 300 301 300 300 299 299 299 298
299 297 299 299 303 299 294 292 292 292 291 290 288 286 285 284 284 283 288 293 295 297 299 299 301 301 299 299 301 300 296 295 294 295 295 294 293 292 291 291 290 290 290 289
299 298 299 296 296 297 292 291 290 289 289 288 287 285 284 284 284 286 288 291 293 291 291 291 290 290 290 291 292 291 290 288 289 289 290 290 290 290 290 290 290 290 290 290
298 296 297 297 296 292 290 288 287 287 286 286 286 285 284 283 283 284 285 286 287 288 289 289 289 290 290 290 290 289 289 289 289 290 290 290 290 289 289 289 288 288 287 286
296 295 298 298 295 291 288 287 286 286 285 285 285 284 286 286 286 287 287 287 288 288 288 288 288 288 288 288 288 288 288 288 289 289 288 287 287 286 285 284 283 282 281 280
296 294 296 298 296 292 290 286 286 286 285 286 287 286 286 286 286 286 286 286 286 286 287 288 289 288 287 287 287 286 286 286 286 285 284 283 282 281 280 279 278 277 276 276
293 292 297 297 292 292 287 286 287 288 287 287 287 287 287 287 287 286 287 286 287 287 287 287 286 286 285 284 284 284 283 283 283 283 281 280 280 279 279 278 277 276 276 276
Wind_Speed
20 10 11 14 17 20 16 20 20 20 19 18 16 15 14 14 22 22 28 34 26 29 27 27 33 30 32 36 37 38 38 41 42 41 36 36 35 30 26 25 26 24 27 26
13 16 17 20 21 21 21 22 22 19 20 17 17 19 16 18 19 23 23 25 34 29 32 31 30 34 33 35 34 38 40 38 42 42 39 38 36 31 29 29 29 27 28 27
15 21 19 22 24 21 21 20 22 22 18 16 16 19 18 16 25 30 32 28 29 35 31 31 35 37 33 37 37 39 39 39 43 40 39 37 36 33 34 34 31 33 29 28
14 12 14 17 21 18 24 19 24 21 18 13 13 15 16 14 19 20 27 30 28 32 34 26 36 35 36 36 38 39 39 37 38 42 41 44 45 43 40 38 34 32 29 28
13 20 22 23 24 21 22 17 20 19 14 14 19 10 14 15 19 21 22 32 34 32 32 36 27 46 41 35 38 40 43 40 42 38 43 42 43 45 43 40 37 34 31 29
21 30 20 19 20 20 21 16 13 14 8 12 22 16 10 16 20 18 18 35 37 36 37 38 30 37 37 36 32 38 39 44 44 39 42 44 42 43 42 42 40 35 32 32
24 9 4 5 10 10 4 3 3 4 6 11 11 12 17 13 21 23 21 35 41 42 40 37 31 23 32 37 35 37 39 44 44 39 36 41 41 40 39 41 39 37 36 35
9 20 7 4 10 6 11 7 2 3 3 5 12 9 14 27 25 27 25 28 40 43 42 41 35 26 32 36 36 38 42 43 43 40 40 46 46 41 39 37 37 37 35 33
8 9 15 11 15 4 0 3 8 7 5 5 6 13 13 13 23 23 18 22 37 41 36 37 37 36 29 38 38 34 40 41 39 39 43 46 46 42 42 39 35 33 33 33
5 12 9 19 1 2 4 9 0 2 4 4 6 8 4 10 14 11 13 14 25 36 36 38 35 35 35 37 38 33 38 38 40 42 45 48 45 41 40 37 36 34 34 35
12 5 13 13 7 11 3 2 4 6 3 3 7 3 7 13 12 9 8 17 14 33 35 35 36 32 33 33 32 27 33 35 36 42 45 45 43 41 41 39 38 36 35 37
7 4 6 20 12 2 4 10 6 4 3 3 4 3 10 16 15 14 13 22 21 14 18 30 32 28 27 26 23 25 29 30 35 39 41 41 43 42 43 39 38 37 37 38
9 3 7 8 1 1 9 20 18 16 5 2 5 3 17 18 14 18 14 21 21 20 24 26 28 26 25 25 22 22 24 28 35 36 41 43 45 44 43 41 40 39 39 39
18 3 6 7 13 10 9 20 23 17 4 6 5 10 17 18 12 13 19 21 25 27 26 26 25 23 19 17 18 19 22 24 30 35 37 38 37 33 34 33 31 27 22 22
6 4 8 14 18 9 17 20 20 21 17 7 9 11 17 16 12 14 21 23 32 34 35 29 26 22 20 17 15 13 10 7 5 4 4 3 2 3 3 6 7 13 16 16
4 4 12 5 4 11 11 23 15 23 22 9 10 14 16 19 25 27 27 30 34 36 37 38 35 32 32 31 28 26 25 25 22 26 26 25 27 27 28 23 23 21 17 11
5 6 7 5 8 8 6 23 13 17 22 11 12 9 13 21 22 28 32 34 36 37 38 41 42 43 44 46 45 47 45 40 40 36 33 30 27 26 20 16 11 9 13 12
9 11 3 5 9 5 6 18 10 11 26 26 18 15 12 18 34 46 41 37 42 39 42 47 49 48 46 42 38 37 36 35 30 28 28 16 16 15 9 12 10 7 7 5
4 3 4 4 6 1 21 23 14 6 17 26 20 20 20 14 45 44 42 45 47 44 48 47 45 43 41 39 32 30 30 28 27 26 22 19 17 14 14 13 11 9 8 6
11 4 0 4 5 11 19 28 38 5 18 30 27 21 20 20 22 9 33 46 47 44 43 42 38 36 37 36 32 29 32 32 32 28 25 22 20 17 16 15 13 11 10 11
8 5 10 10 6 5 20 35 17 10 6 26 26 22 26 15 17 17 37 45 43 42 40 37 36 37 36 32 30 31 31 33 27 22 19 20 20 19 18 16 16 15 14 12
6 6 5 5 7 7 34 13 8 9 14 17 24 24 25 26 35 42 42 42 41 40 39 37 38 39 37 34 32 35 36 29 25 23 24 25 24 22 19 17 17 16 15 14
4 3 3 6 3 3 14 16 16 14 14 20 20 21 22 29 35 37 39 39 39 39 38 37 37 37 36 34 33 33 31 26 23 22 24 23 21 19 19 18 19 18 19 20
1 6 2 2 3 6 16 14 15 17 17 17 19 22 27 32 33 36 35 36 35 35 36 35 36 37 36 33 31 30 26 24 22 22 23 22 21 21 21 22 24 24 26 28
1 6 3 4 4 3 14 14 11 12 14 17 19 22 25 27 30 30 31 32 32 31 31 32 33 32 32 29 28 27 25 22 22 23 23 24 24 25 25 26 26 26 27 28
3 1 1 2 1 3 3 6 7 10 14 15 17 21 23 24 26 27 29 28 28 29 28 28 29 29 28 26 26 26 25 24 23 24 25 26 25 26 26 27 27 28 28 27
Wind_Direction
267 236 241 252 262 263 263 267 266 270 272 276 277 290 292 282 241 250 241 242 245 250 240 219 214 208 203 206 205 206 203 207 207 205 203 204 207 206 204 203 201 201 210 211
289 268 264 264 265 267 273 275 266 272 265 271 281 281 284 283 281 275 256 230 234 246 242 232 213 210 199 204 209 205 210 213 213 211 209 209 208 207 201 203 202 207 211 215
280 280 295 285 276 275 262 262 259 257 271 260 268 267 262 249 255 267 268 270 227 230 241 229 223 214 207 203 209 206 209 213 216 212 210 212 215 211 207 209 210 209 212 220
280 274 279 297 286 278 280 273 262 264 262 254 238 264 253 248 251 243 250 251 252 226 234 235 217 210 215 204 203 204 210 213 217 215 211 214 216 215 216 221 218 218 220 216
265 292 288 282 273 278 279 276 259 266 243 254 251 254 250 245 255 237 233 238 241 242 224 238 235 208 216 214 208 209 210 210 215 215 212 216 219 223 228 227 227 221 217 214
265 281 289 273 291 283 270 262 251 242 230 244 240 227 232 234 238 251 217 226 230 231 228 233 241 199 210 212 214 213 213 211 215 216 214 222 220 225 228 227 226 220 218 215
315 287 304 327 316 299 281 175 204 176 213 244 229 231 237 240 227 234 248 211 218 222 219 221 227 215 207 210 212 213 209 210 218 221 216 212 223 229 235 233 227 221 220 218
345 322 350 222 295 262 278 274 220 226 226 254 216 226 225 218 240 249 247 227 209 215 206 212 218 213 214 217 217 214 216 218 224 220 219 216 227 232 236 235 228 228 227 222
320 287 309 289 305 230 317 194 299 317 241 263 237 246 239 229 216 231 237 257 199 206 203 201 214 218 214 218 218 215 215 215 216 217 217 222 223 226 231 231 227 229 226 227
287 293 299 329 44 89 326 328 310 231 294 276 280 267 181 304 219 218 218 230 206 197 206 209 210 212 215 221 220 218 218 216 223 222 219 220 221 226 229 231 228 225 226 227
301 245 292 324 357 325 307 330 281 289 219 270 313 73 8 0 11 354 211 195 216 195 200 201 204 207 208 216 215 217 222 220 218 217 217 218 223 223 226 230 226 226 228 230
324 294 290 298 293 253 56 2 301 272 189 226 220 251 2 2 9 4 355 32 43 84 173 188 193 194 194 195 205 214 217 219 219 219 214 213 218 222 226 229 229 230 230 228
354 300 301 326 182 179 10 349 326 300 231 232 336 353 2 3 10 18 31 39 51 74 108 127 152 170 187 182 201 206 213 214 217 213 215 214 215 221 223 226 226 224 222 220
340 260 260 267 281 304 335 359 2 8 37 337 27 354 345 356 14 30 47 55 66 72 91 102 109 118 137 152 175 195 201 209 210 213 207 206 209 211 215 218 217 211 206 195
315 280 280 279 276 271 27 4 16 20 1 41 0 20 355 359 31 45 62 64 67 64 72 84 91 97 102 110 115 124 129 131 124 108 135 103 83 129 170 180 155 139 135 133
321 276 315 291 353 88 53 16 13 22 11 7 25 36 0 22 44 49 55 64 66 66 69 75 82 89 88 86 86 89 87 85 93 94 86 95 97 100 101 99 109 120 127 127
295 320 326 290 326 318 23 13 4 21 24 355 21 25 21 39 43 43 52 63 66 67 71 73 76 84 91 92 93 91 90 90 84 84 84 77 90 93 99 101 105 123 138 157
294 317 283 296 321 59 16 12 353 352 26 14 11 10 51 61 62 48 44 58 62 63 72 83 89 92 92 89 90 94 93 90 93 85 81 86 85 101 115 123 139 145 133 104
273 296 314 318 359 352 6 357 341 348 30 11 8 11 9 63 68 43 44 66 78 78 81 83 85 85 89 89 91 90 85 81 77 78 81 78 80 84 77 79 78 64 49 34
331 246 294 323 47 26 350 342 334 242 36 357 8 20 20 23 69 31 43 74 78 79 81 86 88 88 88 86 87 86 81 77 73 72 73 74 68 65 65 62 60 52 39 31
336 356 23 7 53 54 353 341 0 53 331 345 15 27 43 50 61 61 76 76 77 78 78 80 81 79 80 80 79 78 74 70 68 70 74 77 74 70 67 66 65 60 57 54
355 341 8 3 35 17 352 351 47 349 359 14 31 37 55 66 71 75 76 76 76 79 82 80 79 80 80 79 77 76 73 73 73 73 69 66 65 64 62 56 56 51 46 39
31 18 1 31 59 5 12 34 28 28 35 32 40 51 62 67 71 77 78 78 79 80 80 81 81 80 77 74 75 75 75 73 70 67 66 64 61 58 55 47 42 37 32 26
112 16 50 163 58 45 35 40 44 41 50 63 65 70 76 78 78 79 79 79 79 77 77 77 77 76 75 73 72 72 71 68 64 62 61 58 53 49 45 40 36 31 29 25
315 328 11 82 94 180 19 30 38 61 69 71 79 81 81 85 84 84 82 80 81 81 78 75 73 72 71 69 69 68 65 61 59 59 57 54 50 48 44 42 42 39 38 33
10 77 19 102 84 88 359 28 68 75 71 77 83 86 87 88 89 87 85 84 83 81 80 79 77 76 74 70 65 60 55 50 47 46 44 43 42 43 45 48 47 44 42 36